contact: severine.martini@mio.osupytheas.fr, dominique.lefevre@mio.osupytheas.fr
Project:EMSO Ligure-ouest http://www.emso-fr.org/EMSO-France
Sensor Microcat Sea-Bird SBE37 SMP,  Serial 57510 
DOI : "https://doi.org/10.17882/97948" 
Title:EMSO Ligure Ouest : Data Bathybot capteur Microcat - deploiement 2023-04-28
Datetime,Profondeur,Latitude,Longitude,Temperature,Conductivite,Pression,Salinite
time,m,degree_north,degree_east,degree_C,S/m,db,PSU 
2023-11-06T00:00:49,2420,42.8014,5.9826,13.2969,4.36095,2453.695,36.2502
2023-11-06T00:03:49,2420,42.8014,5.9826,13.2974,4.36062,2453.695,36.2467
2023-11-06T00:06:49,2420,42.8014,5.9826,13.2971,4.36148,2453.672,36.2550
2023-11-06T00:09:49,2420,42.8014,5.9826,13.2973,4.36041,2453.695,36.2448
2023-11-06T00:12:49,2420,42.8014,5.9826,13.2972,4.36113,2453.695,36.2517
2023-11-06T00:15:49,2420,42.8014,5.9826,13.2975,4.36093,2453.672,36.2495
2023-11-06T00:18:49,2420,42.8014,5.9826,13.2973,4.36078,2453.695,36.2483
2023-11-06T00:21:49,2420,42.8014,5.9826,13.2972,4.36060,2453.672,36.2467
2023-11-06T00:24:49,2420,42.8014,5.9826,13.2974,4.36051,2453.672,36.2457
2023-11-06T00:27:49,2420,42.8014,5.9826,13.2967,4.36059,2453.695,36.2471
2023-11-06T00:30:49,2420,42.8014,5.9826,13.2973,4.36025,2453.709,36.2433
2023-11-06T00:33:49,2420,42.8014,5.9826,13.2984,4.36045,2453.695,36.2442
2023-11-06T00:36:49,2420,42.8014,5.9826,13.2973,4.36006,2453.672,36.2416
2023-11-06T00:39:49,2420,42.8014,5.9826,13.2968,4.36001,2453.680,36.2415
2023-11-06T00:42:49,2420,42.8014,5.9826,13.2974,4.36027,2453.680,36.2434
2023-11-06T00:45:49,2420,42.8014,5.9826,13.2979,4.35960,2453.649,36.2367
2023-11-06T00:48:49,2420,42.8014,5.9826,13.2969,4.36084,2453.695,36.2492
2023-11-06T00:51:49,2420,42.8014,5.9826,13.2974,4.36031,2453.687,36.2438
2023-11-06T00:54:49,2420,42.8014,5.9826,13.2972,4.35963,2453.672,36.2376
2023-11-06T00:57:49,2420,42.8014,5.9826,13.2973,4.36037,2453.680,36.2444
2023-11-06T01:00:49,2420,42.8014,5.9826,13.2975,4.35968,2453.657,36.2378
2023-11-06T01:03:49,2420,42.8014,5.9826,13.3155,4.36050,2453.672,36.2287
2023-11-06T01:06:49,2420,42.8014,5.9826,13.3016,4.36269,2453.672,36.2621
2023-11-06T01:09:49,2420,42.8014,5.9826,13.3023,4.36111,2453.709,36.2467
2023-11-06T01:12:49,2420,42.8014,5.9826,13.3086,4.36089,2453.695,36.2388
2023-11-06T01:15:49,2420,42.8014,5.9826,13.3024,4.36149,2453.672,36.2502
2023-11-06T01:18:49,2420,42.8014,5.9826,13.3074,4.36054,2453.695,36.2366
2023-11-06T01:21:49,2420,42.8014,5.9826,13.2977,4.36085,2453.695,36.2486
2023-11-06T01:24:49,2420,42.8014,5.9826,13.2997,4.36052,2453.732,36.2436
2023-11-06T01:27:49,2420,42.8014,5.9826,13.3023,4.36099,2453.717,36.2455
2023-11-06T01:30:49,2420,42.8014,5.9826,13.3116,4.36229,2453.695,36.2490
2023-11-06T01:33:49,2420,42.8014,5.9826,13.3771,4.36002,2453.687,36.1668
2023-11-06T01:36:49,2420,42.8014,5.9826,13.3164,4.35973,2453.687,36.2206
2023-11-06T01:39:49,2420,42.8014,5.9826,13.3256,4.36062,2453.695,36.2204
2023-11-06T01:42:49,2420,42.8014,5.9826,13.3031,4.36564,2453.672,36.2883
2023-11-06T01:45:49,2420,42.8014,5.9826,13.3094,4.36097,2453.672,36.2388
2023-11-06T01:48:49,2420,42.8014,5.9826,13.3234,4.35980,2453.687,36.2148
2023-11-06T01:51:49,2420,42.8014,5.9826,13.3051,4.36024,2453.695,36.2360
2023-11-06T01:54:49,2420,42.8014,5.9826,13.3061,4.36115,2453.695,36.2435
2023-11-06T01:57:49,2420,42.8014,5.9826,13.3085,4.35987,2453.672,36.2293
2023-11-06T02:00:49,2420,42.8014,5.9826,13.3115,4.36097,2453.709,36.2368
2023-11-06T02:03:49,2420,42.8014,5.9826,13.3010,4.35961,2453.687,36.2339
2023-11-06T02:06:49,2420,42.8014,5.9826,13.3015,4.35963,2453.740,36.2336
2023-11-06T02:09:49,2420,42.8014,5.9826,13.3081,4.35903,2453.695,36.2218
2023-11-06T02:12:49,2420,42.8014,5.9826,13.3004,4.35951,2453.695,36.2334
2023-11-06T02:15:49,2420,42.8014,5.9826,13.3002,4.35875,2453.672,36.2266
2023-11-06T02:18:49,2420,42.8014,5.9826,13.3008,4.35988,2453.695,36.2365
2023-11-06T02:21:49,2420,42.8014,5.9826,13.2991,4.35927,2453.732,36.2325
2023-11-06T02:24:49,2420,42.8014,5.9826,13.2979,4.35873,2453.672,36.2285
2023-11-06T02:27:49,2420,42.8014,5.9826,13.2985,4.35920,2453.717,36.2324
2023-11-06T02:30:49,2420,42.8014,5.9826,13.2985,4.35930,2453.702,36.2334
2023-11-06T02:33:49,2420,42.8014,5.9826,13.2977,4.35861,2453.695,36.2276
2023-11-06T02:36:49,2420,42.8014,5.9826,13.2975,4.35806,2453.695,36.2226
2023-11-06T02:39:49,2420,42.8014,5.9826,13.2980,4.35838,2453.695,36.2252
2023-11-06T02:42:49,2420,42.8014,5.9826,13.2980,4.35836,2453.717,36.2249
2023-11-06T02:45:49,2420,42.8014,5.9826,13.2975,4.35880,2453.695,36.2296
2023-11-06T02:48:49,2420,42.8014,5.9826,13.2973,4.35836,2453.695,36.2256
2023-11-06T02:51:49,2420,42.8014,5.9826,13.2973,4.35822,2453.695,36.2244
2023-11-06T02:54:49,2420,42.8014,5.9826,13.2982,4.35836,2453.695,36.2248
2023-11-06T02:57:49,2420,42.8014,5.9826,13.2974,4.35797,2453.717,36.2219
2023-11-06T03:00:49,2420,42.8014,5.9826,13.2973,4.35848,2453.740,36.2268
2023-11-06T03:03:49,2420,42.8014,5.9826,13.2974,4.35824,2453.672,36.2245
2023-11-06T03:06:49,2420,42.8014,5.9826,13.2977,4.35847,2453.680,36.2263
2023-11-06T03:09:49,2420,42.8014,5.9826,13.2974,4.35871,2453.695,36.2288
2023-11-06T03:12:49,2420,42.8014,5.9826,13.2978,4.35824,2453.695,36.2241
2023-11-06T03:15:49,2420,42.8014,5.9826,13.2995,4.35824,2453.717,36.2225
2023-11-06T03:18:49,2420,42.8014,5.9826,13.2971,4.35833,2453.657,36.2256
2023-11-06T03:21:50,2420,42.8014,5.9826,13.2975,4.35771,2453.695,36.2194
2023-11-06T03:24:48,2420,42.8014,5.9826,13.2974,4.35763,2453.740,36.2188
2023-11-06T03:27:49,2420,42.8014,5.9826,13.2978,4.35734,2453.717,36.2156
2023-11-06T03:30:49,2420,42.8014,5.9826,13.2974,4.35740,2453.717,36.2166
2023-11-06T03:33:49,2420,42.8014,5.9826,13.2975,4.35777,2453.717,36.2199
2023-11-06T03:36:49,2420,42.8014,5.9826,13.2972,4.35779,2453.717,36.2204
2023-11-06T03:39:49,2420,42.8014,5.9826,13.2975,4.35812,2453.717,36.2232
2023-11-06T03:42:49,2420,42.8014,5.9826,13.2994,4.35813,2453.695,36.2216
2023-11-06T03:45:49,2420,42.8014,5.9826,13.2985,4.35750,2453.732,36.2165
2023-11-06T03:48:49,2420,42.8014,5.9826,13.2975,4.35784,2453.717,36.2206
2023-11-06T03:51:49,2420,42.8014,5.9826,13.2982,4.35773,2453.695,36.2190
2023-11-06T03:54:49,2420,42.8014,5.9826,13.2976,4.35820,2453.702,36.2238
2023-11-06T03:57:49,2420,42.8014,5.9826,13.2985,4.35844,2453.695,36.2253
2023-11-06T04:00:50,2420,42.8014,5.9826,13.2985,4.35777,2453.695,36.2190
2023-11-06T04:03:49,2420,42.8014,5.9826,13.2982,4.35802,2453.695,36.2216
2023-11-06T04:06:49,2420,42.8014,5.9826,13.3004,4.35798,2453.695,36.2192
2023-11-06T04:09:49,2420,42.8014,5.9826,13.2991,4.35837,2453.717,36.2240
2023-11-06T04:12:49,2420,42.8014,5.9826,13.2987,4.35775,2453.740,36.2186
2023-11-06T04:15:49,2420,42.8014,5.9826,13.2986,4.35775,2453.717,36.2187
2023-11-06T04:18:49,2420,42.8014,5.9826,13.2984,4.35792,2453.717,36.2205
2023-11-06T04:21:49,2420,42.8014,5.9826,13.2973,4.35799,2453.717,36.2222
2023-11-06T04:24:49,2420,42.8014,5.9826,13.2978,4.35797,2453.717,36.2215
2023-11-06T04:27:49,2420,42.8014,5.9826,13.3001,4.35856,2453.740,36.2248
2023-11-06T04:30:49,2420,42.8014,5.9826,13.2975,4.35830,2453.717,36.2249
2023-11-06T04:33:49,2420,42.8014,5.9826,13.2993,4.35830,2453.672,36.2232
2023-11-06T04:36:49,2420,42.8014,5.9826,13.3002,4.35840,2453.695,36.2233
2023-11-06T04:39:49,2420,42.8014,5.9826,13.2981,4.35833,2453.695,36.2247
2023-11-06T04:42:49,2420,42.8014,5.9826,13.2982,4.35811,2453.717,36.2225
2023-11-06T04:45:49,2420,42.8014,5.9826,13.2985,4.35787,2453.672,36.2199
2023-11-06T04:48:49,2420,42.8014,5.9826,13.2973,4.35851,2453.695,36.2271
2023-11-06T04:51:49,2420,42.8014,5.9826,13.2973,4.35848,2453.695,36.2267
2023-11-06T04:54:49,2420,42.8014,5.9826,13.2982,4.35798,2453.695,36.2213
2023-11-06T04:57:49,2420,42.8014,5.9826,13.2973,4.35814,2453.717,36.2235
2023-11-06T05:00:49,2420,42.8014,5.9826,13.2975,4.35780,2453.717,36.2202
2023-11-06T05:03:49,2420,42.8014,5.9826,13.2975,4.35806,2453.680,36.2227
2023-11-06T05:06:49,2420,42.8014,5.9826,13.2977,4.35866,2453.672,36.2281
2023-11-06T05:09:49,2420,42.8014,5.9826,13.2976,4.35828,2453.732,36.2246
2023-11-06T05:12:49,2420,42.8014,5.9826,13.2973,4.35824,2453.695,36.2245
2023-11-06T05:15:49,2420,42.8014,5.9826,13.2973,4.35826,2453.717,36.2247
2023-11-06T05:18:49,2420,42.8014,5.9826,13.2970,4.35847,2453.695,36.2269
2023-11-06T05:21:49,2420,42.8014,5.9826,13.2978,4.35868,2453.695,36.2282
2023-11-06T05:24:49,2420,42.8014,5.9826,13.2975,4.35822,2453.695,36.2241
2023-11-06T05:27:49,2420,42.8014,5.9826,13.2973,4.35842,2453.695,36.2263
2023-11-06T05:30:49,2420,42.8014,5.9826,13.2973,4.35812,2453.695,36.2234
2023-11-06T05:33:49,2420,42.8014,5.9826,13.2969,4.35859,2453.680,36.2281
2023-11-06T05:36:49,2420,42.8014,5.9826,13.2974,4.35818,2453.695,36.2238
2023-11-06T05:39:49,2420,42.8014,5.9826,13.2973,4.35869,2453.709,36.2287
2023-11-06T05:42:49,2420,42.8014,5.9826,13.2976,4.35890,2453.680,36.2304
2023-11-06T05:45:49,2420,42.8014,5.9826,13.2974,4.35838,2453.687,36.2257
2023-11-06T05:48:49,2420,42.8014,5.9826,13.2973,4.35876,2453.702,36.2294
2023-11-06T05:51:49,2420,42.8014,5.9826,13.2985,4.35888,2453.695,36.2294
2023-11-06T05:54:49,2420,42.8014,5.9826,13.2975,4.35855,2453.672,36.2272
2023-11-06T05:57:49,2420,42.8014,5.9826,13.2973,4.35882,2453.695,36.2300
2023-11-06T06:00:49,2420,42.8014,5.9826,13.2978,4.35807,2453.680,36.2225
2023-11-06T06:03:50,2420,42.8014,5.9826,13.2975,4.35833,2453.672,36.2253
2023-11-06T06:06:49,2420,42.8014,5.9826,13.2974,4.35847,2453.695,36.2266
2023-11-06T06:09:49,2420,42.8014,5.9826,13.2978,4.35807,2453.672,36.2225
2023-11-06T06:12:49,2420,42.8014,5.9826,13.2975,4.35870,2453.695,36.2286
2023-11-06T06:15:49,2420,42.8014,5.9826,13.2974,4.35895,2453.695,36.2311
2023-11-06T06:18:49,2420,42.8014,5.9826,13.2973,4.35864,2453.717,36.2282
2023-11-06T06:21:49,2420,42.8014,5.9826,13.2975,4.35867,2453.702,36.2284
2023-11-06T06:24:49,2420,42.8014,5.9826,13.2971,4.35865,2453.695,36.2285
2023-11-06T06:27:49,2420,42.8014,5.9826,13.2976,4.35836,2453.672,36.2254
2023-11-06T06:30:49,2420,42.8014,5.9826,13.2972,4.35861,2453.687,36.2281
2023-11-06T06:33:49,2420,42.8014,5.9826,13.2977,4.35821,2453.732,36.2238
2023-11-06T06:36:49,2420,42.8014,5.9826,13.2976,4.35869,2453.680,36.2284
2023-11-06T06:39:49,2420,42.8014,5.9826,13.2973,4.35831,2453.672,36.2252
2023-11-06T06:42:49,2420,42.8014,5.9826,13.2974,4.35813,2453.709,36.2234
2023-11-06T06:45:49,2420,42.8014,5.9826,13.2973,4.35862,2453.695,36.2281
2023-11-06T06:48:49,2420,42.8014,5.9826,13.2969,4.35888,2453.680,36.2309
2023-11-06T06:51:49,2420,42.8014,5.9826,13.2974,4.35854,2453.695,36.2272
2023-11-06T06:54:49,2420,42.8014,5.9826,13.2975,4.35820,2453.672,36.2239
2023-11-06T06:57:49,2420,42.8014,5.9826,13.2973,4.35856,2453.680,36.2275
2023-11-06T07:00:50,2420,42.8014,5.9826,13.2972,4.35840,2453.672,36.2261
2023-11-06T07:03:49,2420,42.8014,5.9826,13.2973,4.35849,2453.702,36.2268
2023-11-06T07:06:49,2420,42.8014,5.9826,13.2970,4.35794,2453.672,36.2220
2023-11-06T07:09:49,2420,42.8014,5.9826,13.2973,4.35859,2453.695,36.2277
2023-11-06T07:12:49,2420,42.8014,5.9826,13.2975,4.35841,2453.695,36.2259
2023-11-06T07:15:49,2420,42.8014,5.9826,13.2973,4.35813,2453.695,36.2235
2023-11-06T07:18:49,2420,42.8014,5.9826,13.2974,4.35764,2453.672,36.2189
2023-11-06T07:21:49,2420,42.8014,5.9826,13.2975,4.35854,2453.695,36.2272
2023-11-06T07:24:49,2420,42.8014,5.9826,13.2972,4.35869,2453.695,36.2288
2023-11-06T07:27:49,2420,42.8014,5.9826,13.2975,4.35864,2453.695,36.2280
2023-11-06T07:30:50,2420,42.8014,5.9826,13.2970,4.35862,2453.695,36.2284
2023-11-06T07:33:49,2420,42.8014,5.9826,13.2978,4.35859,2453.695,36.2273
2023-11-06T07:36:49,2420,42.8014,5.9826,13.2974,4.35844,2453.695,36.2263
2023-11-06T07:39:49,2420,42.8014,5.9826,13.2970,4.35877,2453.695,36.2297
2023-11-06T07:42:49,2420,42.8014,5.9826,13.2975,4.35837,2453.695,36.2255
2023-11-06T07:45:49,2420,42.8014,5.9826,13.2971,4.35827,2453.695,36.2250
2023-11-06T07:48:49,2420,42.8014,5.9826,13.2973,4.35901,2453.695,36.2317
2023-11-06T07:51:49,2420,42.8014,5.9826,13.2981,4.35926,2453.680,36.2333
2023-11-06T07:54:49,2420,42.8014,5.9826,13.2979,4.35831,2453.717,36.2246
2023-11-06T07:57:49,2420,42.8014,5.9826,13.2979,4.35824,2453.635,36.2240
2023-11-06T08:00:49,2420,42.8014,5.9826,13.2975,4.35852,2453.672,36.2269
2023-11-06T08:03:49,2420,42.8014,5.9826,13.2975,4.35878,2453.702,36.2293
2023-11-06T08:06:49,2420,42.8014,5.9826,13.2978,4.35823,2453.702,36.2240
2023-11-06T08:09:49,2420,42.8014,5.9826,13.2975,4.35828,2453.695,36.2247
2023-11-06T08:12:49,2420,42.8014,5.9826,13.2977,4.35857,2453.687,36.2273
2023-11-06T08:15:49,2420,42.8014,5.9826,13.2978,4.35844,2453.687,36.2260
2023-11-06T08:18:49,2420,42.8014,5.9826,13.2973,4.35847,2453.695,36.2267
2023-11-06T08:21:49,2420,42.8014,5.9826,13.2976,4.35863,2453.717,36.2279
2023-11-06T08:24:49,2420,42.8014,5.9826,13.2973,4.35792,2453.695,36.2215
2023-11-06T08:27:49,2420,42.8014,5.9826,13.2979,4.35859,2453.695,36.2272
2023-11-06T08:30:49,2420,42.8014,5.9826,13.2977,4.35808,2453.695,36.2227
2023-11-06T08:33:49,2420,42.8014,5.9826,13.2977,4.35817,2453.717,36.2235
2023-11-06T08:36:49,2420,42.8014,5.9826,13.2979,4.35839,2453.702,36.2253
2023-11-06T08:39:49,2420,42.8014,5.9826,13.2976,4.35792,2453.695,36.2213
2023-11-06T08:42:49,2420,42.8014,5.9826,13.2972,4.35802,2453.717,36.2225
2023-11-06T08:45:49,2420,42.8014,5.9826,13.2975,4.35870,2453.702,36.2286
2023-11-06T08:48:49,2420,42.8014,5.9826,13.2976,4.35836,2453.717,36.2253
2023-11-06T08:51:49,2420,42.8014,5.9826,13.2978,4.35781,2453.717,36.2200
2023-11-06T08:54:49,2420,42.8014,5.9826,13.2982,4.35815,2453.695,36.2228
2023-11-06T08:57:49,2420,42.8014,5.9826,13.2983,4.35825,2453.717,36.2237
2023-11-06T09:00:49,2420,42.8014,5.9826,13.2981,4.35889,2453.695,36.2299
2023-11-06T09:03:49,2420,42.8014,5.9826,13.2973,4.35813,2453.717,36.2235
2023-11-06T09:06:49,2420,42.8014,5.9826,13.2981,4.35831,2453.695,36.2245
2023-11-06T09:09:49,2420,42.8014,5.9826,13.2975,4.35816,2453.717,36.2235
2023-11-06T09:12:49,2420,42.8014,5.9826,13.2978,4.35807,2453.717,36.2225
2023-11-06T09:15:49,2420,42.8014,5.9826,13.2977,4.35866,2453.717,36.2281
2023-11-06T09:18:49,2420,42.8014,5.9826,13.2979,4.35848,2453.695,36.2262
2023-11-06T09:21:49,2420,42.8014,5.9826,13.2981,4.35851,2453.732,36.2263
2023-11-06T09:24:49,2420,42.8014,5.9826,13.2979,4.35873,2453.702,36.2285
2023-11-06T09:27:49,2420,42.8014,5.9826,13.2978,4.35834,2453.740,36.2250
2023-11-06T09:30:49,2420,42.8014,5.9826,13.2978,4.35864,2453.680,36.2278
2023-11-06T09:33:49,2420,42.8014,5.9826,13.2990,4.35816,2453.740,36.2222
2023-11-06T09:36:49,2420,42.8014,5.9826,13.2989,4.35818,2453.680,36.2224
2023-11-06T09:39:49,2420,42.8014,5.9826,13.3016,4.35816,2453.740,36.2197
2023-11-06T09:42:49,2420,42.8014,5.9826,13.3013,4.35925,2453.695,36.2302
2023-11-06T09:45:49,2420,42.8014,5.9826,13.3143,4.35881,2453.717,36.2139
2023-11-06T09:48:49,2420,42.8014,5.9826,13.3061,4.35954,2453.740,36.2285
2023-11-06T09:51:49,2420,42.8014,5.9826,13.3155,4.35888,2453.717,36.2135
2023-11-06T09:54:49,2420,42.8014,5.9826,13.3029,4.35878,2453.717,36.2243
2023-11-06T09:57:49,2420,42.8014,5.9826,13.2992,4.35865,2453.717,36.2266
2023-11-06T10:00:49,2420,42.8014,5.9826,13.3002,4.35915,2453.740,36.2303
2023-11-06T10:03:49,2420,42.8014,5.9826,13.3033,4.35901,2453.740,36.2261
2023-11-06T10:06:49,2420,42.8014,5.9826,13.3010,4.35948,2453.740,36.2327
2023-11-06T10:09:49,2420,42.8014,5.9826,13.3033,4.36010,2453.762,36.2363
2023-11-06T10:12:49,2420,42.8014,5.9826,13.3026,4.35828,2453.717,36.2200
2023-11-06T10:15:49,2420,42.8014,5.9826,13.2996,4.35855,2453.740,36.2252
2023-11-06T10:18:49,2420,42.8014,5.9826,13.2985,4.35816,2453.762,36.2227
2023-11-06T10:21:49,2420,42.8014,5.9826,13.3017,4.35845,2453.740,36.2224
2023-11-06T10:24:49,2420,42.8014,5.9826,13.2994,4.35817,2453.762,36.2219
2023-11-06T10:27:49,2420,42.8014,5.9826,13.3018,4.35881,2453.725,36.2256
2023-11-06T10:30:49,2420,42.8014,5.9826,13.2998,4.35788,2453.740,36.2188
2023-11-06T10:33:49,2420,42.8014,5.9826,13.3037,4.35917,2453.740,36.2272
2023-11-06T10:36:49,2420,42.8014,5.9826,13.2999,4.35825,2453.777,36.2222
2023-11-06T10:39:49,2420,42.8014,5.9826,13.2987,4.35787,2453.740,36.2198
2023-11-06T10:42:49,2420,42.8014,5.9826,13.2997,4.35870,2453.785,36.2266
2023-11-06T10:45:49,2420,42.8014,5.9826,13.3059,4.35781,2453.740,36.2124
2023-11-06T10:48:49,2420,42.8014,5.9826,13.3026,4.35778,2453.762,36.2152
2023-11-06T10:51:49,2420,42.8014,5.9826,13.2993,4.35806,2453.762,36.2209
2023-11-06T10:54:49,2420,42.8014,5.9826,13.2988,4.35839,2453.785,36.2244
2023-11-06T10:57:49,2420,42.8014,5.9826,13.2996,4.35826,2453.777,36.2226
2023-11-06T11:00:49,2420,42.8014,5.9826,13.2986,4.35826,2453.740,36.2235
2023-11-06T11:03:49,2420,42.8014,5.9826,13.3052,4.35833,2453.762,36.2180
2023-11-06T11:06:49,2420,42.8014,5.9826,13.3004,4.35841,2453.762,36.2232
2023-11-06T11:09:49,2420,42.8014,5.9826,13.3007,4.35854,2453.785,36.2241
2023-11-06T11:12:49,2420,42.8014,5.9826,13.3000,4.35823,2453.762,36.2218
2023-11-06T11:15:49,2420,42.8014,5.9826,13.3003,4.35773,2453.762,36.2170
2023-11-06T11:18:49,2420,42.8014,5.9826,13.3013,4.35847,2453.762,36.2228
2023-11-06T11:21:49,2420,42.8014,5.9826,13.2998,4.35891,2453.762,36.2284
2023-11-06T11:24:49,2420,42.8014,5.9826,13.3088,4.35826,2453.785,36.2139
2023-11-06T11:27:49,2420,42.8014,5.9826,13.3006,4.35847,2453.800,36.2235
2023-11-06T11:30:49,2420,42.8014,5.9826,13.3002,4.35871,2453.762,36.2262
2023-11-06T11:33:49,2420,42.8014,5.9826,13.3015,4.35817,2453.762,36.2200
2023-11-06T11:36:49,2420,42.8014,5.9826,13.2993,4.35821,2453.762,36.2223
2023-11-06T11:39:49,2420,42.8014,5.9826,13.3004,4.35831,2453.762,36.2222
2023-11-06T11:42:49,2420,42.8014,5.9826,13.3015,4.35818,2453.762,36.2201
2023-11-06T11:45:49,2420,42.8014,5.9826,13.3031,4.35935,2453.762,36.2295
2023-11-06T11:48:49,2420,42.8014,5.9826,13.3102,4.35829,2453.800,36.2129
2023-11-06T11:51:49,2420,42.8014,5.9826,13.3034,4.35844,2453.800,36.2207
2023-11-06T11:54:49,2420,42.8014,5.9826,13.3018,4.35854,2453.762,36.2231
2023-11-06T11:57:50,2420,42.8014,5.9826,13.3027,4.35901,2453.793,36.2266
2023-11-06T12:00:49,2420,42.8014,5.9826,13.3005,4.35862,2453.800,36.2250
2023-11-06T12:03:49,2420,42.8014,5.9826,13.3008,4.35798,2453.785,36.2188
2023-11-06T12:06:49,2420,42.8014,5.9826,13.2989,4.35861,2453.785,36.2264
2023-11-06T12:09:49,2420,42.8014,5.9826,13.3038,4.35777,2453.762,36.2141
2023-11-06T12:12:49,2420,42.8014,5.9826,13.3072,4.35818,2453.785,36.2146
2023-11-06T12:15:49,2420,42.8014,5.9826,13.3011,4.35875,2453.807,36.2258
2023-11-06T12:18:49,2420,42.8014,5.9826,13.2985,4.35818,2453.785,36.2228
2023-11-06T12:21:49,2420,42.8014,5.9826,13.3029,4.35850,2453.785,36.2217
2023-11-06T12:24:49,2420,42.8014,5.9826,13.2993,4.35838,2453.762,36.2239
2023-11-06T12:27:49,2420,42.8014,5.9826,13.3025,4.35881,2453.762,36.2250
2023-11-06T12:30:49,2420,42.8014,5.9826,13.3036,4.35858,2453.785,36.2218
2023-11-06T12:33:49,2420,42.8014,5.9826,13.3138,4.35812,2453.785,36.2079
2023-11-06T12:36:49,2420,42.8014,5.9826,13.3037,4.35848,2453.807,36.2208
2023-11-06T12:39:49,2420,42.8014,5.9826,13.3033,4.35855,2453.807,36.2218
2023-11-06T12:42:49,2420,42.8014,5.9826,13.3021,4.35821,2453.785,36.2197
2023-11-06T12:45:49,2420,42.8014,5.9826,13.3047,4.35870,2453.785,36.2219
2023-11-06T12:48:49,2420,42.8014,5.9826,13.3124,4.35907,2453.807,36.2182
2023-11-06T12:51:49,2420,42.8014,5.9826,13.3320,4.35869,2453.785,36.1963
2023-11-06T12:54:49,2420,42.8014,5.9826,13.3162,4.35790,2453.785,36.2037
2023-11-06T12:57:49,2420,42.8014,5.9826,13.3029,4.35851,2453.785,36.2218
2023-11-06T13:00:49,2420,42.8014,5.9826,13.3040,4.35828,2453.807,36.2186
2023-11-06T13:03:49,2420,42.8014,5.9826,13.3118,4.35818,2453.785,36.2104
2023-11-06T13:06:49,2420,42.8014,5.9826,13.2998,4.35873,2453.822,36.2267
2023-11-06T13:09:49,2420,42.8014,5.9826,13.3007,4.35850,2453.770,36.2238
2023-11-06T13:12:49,2420,42.8014,5.9826,13.3016,4.35808,2453.807,36.2190
2023-11-06T13:15:49,2420,42.8014,5.9826,13.2997,4.35807,2453.830,36.2206
2023-11-06T13:18:49,2420,42.8014,5.9826,13.3023,4.35816,2453.822,36.2191
2023-11-06T13:21:49,2420,42.8014,5.9826,13.3081,4.35835,2453.822,36.2154
2023-11-06T13:24:49,2420,42.8014,5.9826,13.3011,4.35941,2453.807,36.2319
2023-11-06T13:27:49,2420,42.8014,5.9826,13.3331,4.35852,2453.785,36.1938
2023-11-06T13:30:49,2420,42.8014,5.9826,13.3604,4.35896,2453.785,36.1725
2023-11-06T13:33:49,2420,42.8014,5.9826,13.3537,4.35904,2453.785,36.1795
2023-11-06T13:36:49,2420,42.8014,5.9826,13.3204,4.35895,2453.777,36.2096
2023-11-06T13:39:49,2420,42.8014,5.9826,13.3124,4.35843,2453.807,36.2122
2023-11-06T13:42:49,2420,42.8014,5.9826,13.3158,4.35862,2453.807,36.2108
2023-11-06T13:45:49,2420,42.8014,5.9826,13.3086,4.35916,2453.822,36.2225
2023-11-06T13:48:49,2420,42.8014,5.9826,13.3027,4.35901,2453.785,36.2267
2023-11-06T13:51:49,2420,42.8014,5.9826,13.3972,4.35933,2453.830,36.1417
2023-11-06T13:54:49,2420,42.8014,5.9826,13.3270,4.35943,2453.822,36.2079
2023-11-06T13:57:49,2420,42.8014,5.9826,13.3129,4.35792,2453.845,36.2069
2023-11-06T14:00:49,2420,42.8014,5.9826,13.3083,4.35834,2453.807,36.2152
2023-11-06T14:03:49,2420,42.8014,5.9826,13.3113,4.35881,2453.830,36.2168
2023-11-06T14:06:49,2420,42.8014,5.9826,13.3102,4.35808,2453.785,36.2109
2023-11-06T14:09:49,2420,42.8014,5.9826,13.3051,4.35832,2453.807,36.2179
2023-11-06T14:12:49,2420,42.8014,5.9826,13.3046,4.35839,2453.807,36.2191
2023-11-06T14:15:49,2420,42.8014,5.9826,13.3053,4.35876,2453.793,36.2219
2023-11-06T14:18:49,2420,42.8014,5.9826,13.3041,4.35826,2453.830,36.2184
2023-11-06T14:21:49,2420,42.8014,5.9826,13.3043,4.35841,2453.830,36.2195
2023-11-06T14:24:49,2420,42.8014,5.9826,13.3132,4.35961,2453.822,36.2225
2023-11-06T14:27:49,2420,42.8014,5.9826,13.3070,4.35938,2453.830,36.2261
2023-11-06T14:30:49,2420,42.8014,5.9826,13.3125,4.35907,2453.822,36.2181
2023-11-06T14:33:49,2420,42.8014,5.9826,13.3098,4.35849,2453.830,36.2152
2023-11-06T14:36:49,2420,42.8014,5.9826,13.3038,4.35870,2453.845,36.2228
2023-11-06T14:39:49,2420,42.8014,5.9826,13.3009,4.35885,2453.845,36.2268
2023-11-06T14:42:49,2420,42.8014,5.9826,13.3018,4.36004,2453.807,36.2371
2023-11-06T14:45:49,2420,42.8014,5.9826,13.3019,4.36011,2453.807,36.2377
2023-11-06T14:48:49,2420,42.8014,5.9826,13.3005,4.35929,2453.807,36.2313
2023-11-06T14:51:49,2420,42.8014,5.9826,13.3180,4.35998,2453.830,36.2215
2023-11-06T14:54:49,2420,42.8014,5.9826,13.3783,4.35944,2453.830,36.1603
2023-11-06T14:57:49,2420,42.8014,5.9826,13.3287,4.35964,2453.830,36.2082
2023-11-06T15:00:49,2420,42.8014,5.9826,13.3227,4.35905,2453.830,36.2084
2023-11-06T15:03:49,2420,42.8014,5.9826,13.3169,4.35904,2453.807,36.2137
2023-11-06T15:06:49,2420,42.8014,5.9826,13.3033,4.35951,2453.807,36.2308
2023-11-06T15:09:49,2420,42.8014,5.9826,13.3736,4.35929,2453.807,36.1632
2023-11-06T15:12:49,2420,42.8014,5.9826,13.3091,4.35923,2453.807,36.2227
2023-11-06T15:15:49,2420,42.8014,5.9826,13.3193,4.35922,2453.807,36.2131
2023-11-06T15:18:49,2420,42.8014,5.9826,13.3147,4.35893,2453.845,36.2147
2023-11-06T15:21:49,2420,42.8014,5.9826,13.3128,4.35883,2453.830,36.2155
2023-11-06T15:24:49,2420,42.8014,5.9826,13.3088,4.35982,2453.822,36.2286
2023-11-06T15:27:49,2420,42.8014,5.9826,13.3520,4.35916,2453.845,36.1821
2023-11-06T15:30:49,2420,42.8014,5.9826,13.3159,4.35913,2453.822,36.2154
2023-11-06T15:33:49,2420,42.8014,5.9826,13.3108,4.35868,2453.845,36.2160
2023-11-06T15:36:49,2420,42.8014,5.9826,13.3192,4.35854,2453.822,36.2069
2023-11-06T15:39:49,2420,42.8014,5.9826,13.3088,4.35910,2453.822,36.2218
2023-11-06T15:42:49,2420,42.8014,5.9826,13.3106,4.35881,2453.830,36.2174
2023-11-06T15:45:49,2420,42.8014,5.9826,13.3084,4.35885,2453.830,36.2198
2023-11-06T15:48:49,2420,42.8014,5.9826,13.3099,4.35842,2453.807,36.2144
2023-11-06T15:51:49,2420,42.8014,5.9826,13.3199,4.35867,2453.807,36.2075
2023-11-06T15:54:49,2420,42.8014,5.9826,13.3421,4.35888,2453.807,36.1887
2023-11-06T15:57:49,2420,42.8014,5.9826,13.3155,4.35887,2453.793,36.2135
2023-11-06T16:00:49,2420,42.8014,5.9826,13.3143,4.35856,2453.807,36.2116
2023-11-06T16:03:49,2420,42.8014,5.9826,13.3118,4.35889,2453.785,36.2170